St. Cloud, MN

9:29 PM CDT on July 18, 2019 (GMT -0500)
Saint Cloud Regional

Weather History for KSTC - May, 2019

Change the Weather History Date:

Thursday, May 23, 2019

  Actual Average Record
Temperature  
Mean Temperature 52 °F 59 °F  
Max Temperature 57 °F 71 °F 94 °F (1926)
Min Temperature 47 °F 46 °F 28 °F (1963)
Degree Days  
Heating Degree Days 13 7  
Month to date heating degree days 357 237  
Since 1 July heating degree days 9155 8404  
Cooling Degree Days 0 1  
Month to date cooling degree days 0 15  
Year to date cooling degree days 0 17  
Growing Degree Days 2 (Base 50)    
Moisture  
Dew Point 46 °F    
Average Humidity 78    
Maximum Humidity 93    
Minimum Humidity 62    
Precipitation  
Precipitation 0.01 in 0.09 in 1.43 in (2004)
Month to date precipitation 5.73 2.15  
Year to date precipitation 13.08 7.51  
Snow  
Snow 0.00 in 0.00 in 0.20 in (1925)
Month to date snowfall 0.4 0.0  
Since 1 July snowfall 68.9 45.7  
Snow Depth 0.00 in    
Sea Level Pressure  
Sea Level Pressure 29.97 in    
Wind  
Wind Speed 10 mph ()    
Max Wind Speed 20 mph    
Max Gust Speed 26 mph    
Visibility 10.0 miles    
Events      
T = Trace of Precipitation, MM = Missing Value Source: Averaged Metar Reports

Daily Weather History Graph

Daily Weather History Graph

Search for Another Location

Airport or City:

Astronomy

May. 23, 2019 Rise Set
Actual Time 5:37 AM CDT 8:49 PM CDT
Civil Twilight 5:01 AM CDT 9:24 PM CDT
Nautical Twilight 4:15 AM CDT 10:11 PM CDT
Astronomical Twilight 3:18 AM CDT 11:08 PM CDT
Moon 12:33 AM CDT (5/23) 9:40 AM CDT (5/23)
Length of Visible Light 16h 23m
Length of Day
15h 11m
Waning Gibbous, 77% of the Moon is Illuminated
May 23
Waning Gibbous
May 26
Last Quarter
Jun 3
New
Jun 10
First Quarter
Jun 17
Full

Hourly Weather History & Observations

Time (CDT) Temp. Dew Point Humidity Pressure Visibility Wind Dir Wind Speed Gust Speed Precip Events Conditions
12:28 AM 53.1 °F 48.9 °F 86% 29.72 in 10.0 mi WSW 10.4 mph - N/A   Mostly Cloudy
12:39 AM 53.1 °F 48.9 °F 86% 29.72 in 10.0 mi WSW 12.7 mph - N/A   Overcast
12:46 AM 52.0 °F 48.9 °F 89% 29.72 in 10.0 mi WSW 11.5 mph - N/A   Overcast
12:53 AM 53.1 °F 48.9 °F 86% 29.76 in 10.0 mi WSW 11.5 mph - N/A   Overcast
1:12 AM 52.0 °F 48.9 °F 89% 29.73 in 10.0 mi WSW 10.4 mph - N/A   Overcast
1:53 AM 51.1 °F 48.0 °F 89% 29.77 in 10.0 mi West 12.7 mph - 0.01 in   Mostly Cloudy
2:14 AM 51.1 °F 46.9 °F 86% 29.74 in 10.0 mi West 12.7 mph - N/A   Mostly Cloudy
2:23 AM 51.1 °F 46.9 °F 86% 29.75 in 10.0 mi WSW 13.8 mph - N/A   Mostly Cloudy
2:53 AM 51.1 °F 46.9 °F 86% 29.80 in 10.0 mi West 10.4 mph - N/A   Overcast
3:53 AM 51.1 °F 46.0 °F 83% 29.83 in 10.0 mi West 15.0 mph - N/A   Overcast
4:53 AM 50.0 °F 46.0 °F 86% 29.85 in 10.0 mi West 15.0 mph - N/A   Overcast
5:53 AM 50.0 °F 45.0 °F 83% 29.88 in 10.0 mi West 11.5 mph - N/A   Overcast
6:53 AM 50.0 °F 45.0 °F 83% 29.93 in 10.0 mi West 16.1 mph - N/A   Overcast
7:53 AM 50.0 °F 44.1 °F 80% 29.96 in 10.0 mi West 13.8 mph 24.2 mph N/A   Overcast
8:53 AM 51.1 °F 44.1 °F 77% 29.98 in 10.0 mi West 12.7 mph 23.0 mph N/A   Overcast
9:53 AM 52.0 °F 44.1 °F 74% 30.01 in 10.0 mi West 16.1 mph 25.3 mph N/A   Overcast
10:53 AM 54.0 °F 46.0 °F 75% 30.02 in 10.0 mi WNW 15.0 mph - N/A   Overcast
11:40 AM 55.0 °F 45.0 °F 69% 30.01 in 10.0 mi WNW 16.1 mph 23.0 mph N/A   Overcast
11:49 AM 53.6 °F 44.6 °F 72% 30.02 in 10.0 mi West 17.3 mph - N/A   Overcast
11:53 AM 54.0 °F 45.0 °F 72% 30.06 in 10.0 mi WNW 11.5 mph 24.2 mph N/A   Overcast
12:25 PM 54.0 °F 45.0 °F 72% 30.03 in 10.0 mi West 16.1 mph - N/A   Overcast
12:33 PM 54.0 °F 45.0 °F 72% 30.03 in 10.0 mi WNW 11.5 mph - N/A   Overcast
12:53 PM 55.9 °F 45.0 °F 67% 30.07 in 10.0 mi NW 11.5 mph 19.6 mph N/A   Overcast
1:53 PM 57.0 °F 45.0 °F 64% 30.08 in 10.0 mi WNW 15.0 mph - N/A   Overcast
2:43 PM 55.9 °F 45.0 °F 67% 30.05 in 10.0 mi WNW 15.0 mph - N/A   Overcast
2:53 PM 55.9 °F 45.0 °F 67% 30.09 in 10.0 mi NW 12.7 mph - N/A   Overcast
3:53 PM 55.9 °F 46.0 °F 69% 30.12 in 10.0 mi West 10.4 mph - N/A   Overcast
4:53 PM 55.9 °F 46.0 °F 69% 30.15 in 10.0 mi WSW 6.9 mph - N/A   Overcast
5:53 PM 55.0 °F 45.0 °F 69% 30.14 in 10.0 mi NW 8.1 mph - N/A   Overcast
6:53 PM 55.0 °F 46.0 °F 72% 30.15 in 10.0 mi West 4.6 mph - N/A   Overcast
7:53 PM 54.0 °F 46.0 °F 75% 30.13 in 10.0 mi Calm Calm - N/A   Overcast
8:53 PM 53.1 °F 46.0 °F 77% 30.12 in 10.0 mi WNW 3.5 mph - N/A   Overcast
9:53 PM 51.1 °F 46.9 °F 86% 30.13 in 10.0 mi NE 3.5 mph - N/A   Overcast
10:53 PM 50.0 °F 46.9 °F 89% 30.12 in 10.0 mi NE 4.6 mph - N/A   Scattered Clouds
11:53 PM 48.9 °F 46.9 °F 93% 30.13 in 10.0 mi Calm Calm - N/A   Scattered Clouds